Mount Shasta, CA

2:26 AM PDT on April 25, 2018 (GMT -0700)
Mount Shasta

Weather History for KMHS - November, 2013

Change the Weather History Date:

Thursday, November 21, 2013

  Actual Average Record
Temperature  
Mean Temperature 37 °F 39 °F  
Max Temperature 44 °F 49 °F 76 °F (1914)
Min Temperature 29 °F 29 °F 10 °F (1985)
Degree Days  
Heating Degree Days 28 26  
Month to date heating degree days 400 487  
Since 1 July heating degree days 1039 1151  
Cooling Degree Days 0 0  
Month to date cooling degree days 0 0  
Year to date cooling degree days 474 288  
Moisture  
Dew Point 6 °F    
Average Humidity 31    
Maximum Humidity 56    
Minimum Humidity 19    
Precipitation  
Precipitation 0.00 in 0.17 in 1.94 in (1974)
Month to date precipitation 0.22 3.33  
Year to date precipitation 9.76 33.61  
Sea Level Pressure  
Sea Level Pressure 30.34 in    
Wind  
Wind Speed 6 mph (North)    
Max Wind Speed 17 mph    
Max Gust Speed 27 mph    
Visibility 10 miles    
Events      
T = Trace of Precipitation, MM = Missing Value Source: NWS Daily Summary

Daily Weather History Graph

Daily Weather History Graph

Search for Another Location

Airport or City:

Astronomy

Nov. 21, 2013 Rise Set
Actual Time 7:05 AM PST 4:45 PM PST
Civil Twilight 6:34 AM PST 5:15 PM PST
Nautical Twilight 6:01 AM PST 5:49 PM PST
Astronomical Twilight 5:28 AM PST 6:21 PM PST
Moon 8:27 PM PST (11/21) 10:14 AM PST (11/21)
Length of Visible Light 10h 40m
Length of Day
9h 40m
Waning Gibbous, 84% of the Moon is Illuminated
Nov 21
Waning Gibbous
Nov 25
Last Quarter
Dec 2
New
Dec 9
First Quarter
Dec 17
Full

Hourly Weather History & Observations

Time (PST) Temp. Windchill Dew Point Humidity Pressure Visibility Wind Dir Wind Speed Gust Speed Precip Events Conditions
12:56 AM 34.0 °F 31.0 °F 19.9 °F 56% 30.13 in 10.0 mi Variable 3.5 mph - N/A   Clear
1:56 AM 33.1 °F 27.7 °F 18.0 °F 54% 30.15 in 10.0 mi Variable 5.8 mph - N/A   Clear
2:56 AM 32.0 °F 28.7 °F 16.0 °F 52% 30.18 in 10.0 mi Variable 3.5 mph - N/A   Clear
3:56 AM 30.9 °F - 14.0 °F 50% 30.20 in 10.0 mi North - - N/A   Clear
4:56 AM 30.9 °F 27.5 °F 12.0 °F 46% 30.23 in 10.0 mi Variable 3.5 mph - N/A   Clear
5:56 AM 30.0 °F - 9.0 °F 41% 30.27 in 10.0 mi Calm Calm - N/A   Clear
6:56 AM 30.0 °F - 7.0 °F 38% 30.29 in 10.0 mi North - - N/A   Clear
7:56 AM 30.0 °F 22.4 °F 5.0 °F 35% 30.31 in 10.0 mi NW 8.1 mph - N/A   Clear
8:56 AM 32.0 °F 24.8 °F 3.0 °F 29% 30.33 in 10.0 mi NNW 8.1 mph - N/A   Clear
9:56 AM 34.0 °F 29.8 °F 3.9 °F 28% 30.35 in 10.0 mi Variable 4.6 mph - N/A   Clear
10:56 AM 37.0 °F 30.4 °F 3.9 °F 25% 30.35 in 10.0 mi NNW 9.2 mph 17.3 mph N/A   Clear
11:56 AM 39.0 °F 31.8 °F 3.9 °F 23% 30.34 in 10.0 mi WNW 11.5 mph 21.9 mph N/A   Clear
12:56 PM 42.1 °F 36.1 °F 5.0 °F 22% 30.33 in 10.0 mi WNW 10.4 mph 27.6 mph N/A   Clear
1:56 PM 43.0 °F - 6.1 °F 22% 30.35 in 10.0 mi North - - N/A   Clear
2:56 PM 43.0 °F 39.5 °F 3.9 °F 20% 30.34 in 10.0 mi Variable 5.8 mph 17.3 mph N/A   Clear
3:56 PM 43.0 °F 40.3 °F 3.0 °F 19% 30.36 in 10.0 mi Variable 4.6 mph - N/A   Clear
4:56 PM 39.9 °F 36.7 °F 1.9 °F 20% 30.38 in 10.0 mi Variable 4.6 mph - N/A   Clear
5:56 PM 39.9 °F 37.8 °F 1.9 °F 20% 30.40 in 10.0 mi Variable 3.5 mph - N/A   Clear
6:56 PM 37.0 °F 33.3 °F 3.0 °F 24% 30.42 in 10.0 mi Variable 4.6 mph - N/A   Clear
7:56 PM 36.0 °F 32.1 °F 3.0 °F 25% 30.46 in 10.0 mi NE 4.6 mph - N/A   Clear
8:56 PM 35.1 °F 28.6 °F 1.9 °F 25% 30.47 in 10.0 mi NNE 8.1 mph - N/A   Clear
9:56 PM 36.0 °F 30.3 °F 1.0 °F 23% 30.48 in 10.0 mi Variable 6.9 mph - N/A   Clear
10:56 PM 35.1 °F 29.3 °F 1.9 °F 25% 30.48 in 10.0 mi NE 6.9 mph - N/A   Clear
11:56 PM 32.0 °F 27.5 °F 3.0 °F 29% 30.46 in 10.0 mi North 4.6 mph - N/A   Clear